OBJECT P, 43771

Orbit data source: Space-Track

You're viewing an Uncataloged Satellite

Recently launched and/or uncataloged satellites may have evolving metadata. Metadata may include but not limited to: Owner, Maufacturer, Bus, Motor, and Mission.

OBJECT P, 43771 is a satellite in SSO that was launched on Mon, 03 Dec 2018 UTC via an FALCON 9 launch vehicle from the Air Force Western Test Range (AFWTR). Unknown objects in Earth's orbit typically refer to objects detected orbiting the Earth but have not yet been identified or cataloged. These objects could be anything from previously untracked satellites, spent rocket stages, debris from satellite collisions, or even natural meteoroids temporarily captured by Earth's gravity.

Loading next visibility...
Identifier
43771, 2018-099P
Orbit
SSO
Country
Flag of TBDTBD
Related business
None
Manufacturer
Unknown
Mission
Non-operational Amateur Technology
Bus & Motor
Unknown
Mass
Unknown
Launch date (UTC)
2018-12-03 (8 years ago)
Launch vehicle
FALCON 9
Launch site
Air Force Western Test Range (AFWTR)
Object type
Unknown
Shape & HBR
Box + Inf Sphere + 4 Pan, 15.0 m
Radar Cross Section
1.830 m², Medium (>0.1 m² and < 1m²)

Expand to show TLE details & history
Last TLE update: 1 week ago

TLE from 1 week ago
0 OBJECT P
1 43771U 18099P   26153.64456781  .00019499  00000-0  59586-3 0  9995
2 43771  97.4250 217.1943 0007425 344.5725  15.5290 15.33894322411318
Epoch: 2026-06-02T15:28Z
TLE epoch observation values (Epoch: 2026-06-02T15:28:10.658Z)
Latitude
-0.00005°
Longitude
94.03532°
Altitude
462.419 km
Speed
7.638 km/s
True Right ascension
14h 28m 46s
True Declination
0° 00' 00"
Sunlit
Object was in full shadow at epoch
Visualization orbit readout
Latitude
Unknown
Longitude
Unknown
Altitude
Unknown
Speed
Unknown
Apparent Right ascension
Unknown
Apparent Declination
Unknown
Sunlit
N/A
Visualization observer readout
Local Sidereal Time
03:15:07
Azimuth
Unknown
Elevation
Unknown
Doppler factor
Unknown
Orbital elements
Apogee altitude
466.233 km
Perigee altitude
456.077 km
Semi-major axis
6,839.292 km
Eccentricity
0.00074
Inclination
97.425°
RAAN
217.1943°
Arg. of periapsis
344.5725°
True anomaly
15.5518°
Mean anomaly
15.529°
Eccentric anomaly
15.5404°
Mean motion
3.83731 °/min
Orbital period
93.82 mins
BSTAR
0.00059586
Loading maneuver chart data...
Computing Atmospheric mass density...
Loading historical data...
Loading historical data...
Loading historical data...
Loading historical data...
Loading historical data...
Loading historical data...
Loading historical data...

Documentation

Showing up to 5 results
|